Location: Champs
(48.8539°N, 2.6040°E)
Time: 13:30:12
(UTC+00:00)

CZ-4B R/B - Pass Details

Date: 26 October 2021
Orbit: 497 x 643 km, 97.8° (Epoch: 06 December)

Event Time Altitude Azimuth Distance (km) Brightness Sun altitude
Rises 05:04:10 0° 14° (NNE) 2,607 7.4 -14.2°
Reaches altitude 10° 05:06:15 10° 16° (NNE) 1,726 6.5 -13.9°
Maximum altitude 05:09:57 79° 103° (ESE) 529 3.8 -13.3°
Drops below altitude 10° 05:13:44 10° 191° (S) 1,763 6.3 -12.6°
Sets 05:15:52 0° 192° (SSW) 2,669 7.2 -12.3°
